Data supplied by UK-AIR on 9/6/2008
All Data GMT hour ending 
Status: R =Ratified P=Provisional,P*=As supplied
,,Scunthorpe Town,,,,,,,,,,,,,,,,,,,,,,,
Date,time,"PM10 particulate matter (Hourly measured)",status,unit,"Sulphur dioxide",status,unit
 
01-01-2006,01:00,40,R,ugm-3 (GRAV EQ),,,
01-01-2006,02:00,22,R,ugm-3 (GRAV EQ),,,
01-01-2006,03:00,22,R,ugm-3 (GRAV EQ),,,
01-01-2006,04:00,21,R,ugm-3 (GRAV EQ),,,
01-01-2006,05:00,27,R,ugm-3 (GRAV EQ),,,
01-01-2006,06:00,27,R,ugm-3 (GRAV EQ),,,
01-01-2006,07:00,26,R,ugm-3 (GRAV EQ),,,
01-01-2006,08:00,25,R,ugm-3 (GRAV EQ),,,
01-01-2006,09:00,17,R,ugm-3 (GRAV EQ),,,
01-01-2006,10:00,9,R,ugm-3 (GRAV EQ),,,
01-01-2006,11:00,9,R,ugm-3 (GRAV EQ),,,
01-01-2006,12:00,8,R,ugm-3 (GRAV EQ),,,
01-01-2006,13:00,8,R,ugm-3 (GRAV EQ),,,
01-01-2006,14:00,9,R,ugm-3 (GRAV EQ),,,
01-01-2006,15:00,12,R,ugm-3 (GRAV EQ),,,
01-01-2006,16:00,13,R,ugm-3 (GRAV EQ),,,
01-01-2006,17:00,13,R,ugm-3 (GRAV EQ),,,
01-01-2006,18:00,14,R,ugm-3 (GRAV EQ),,,
01-01-2006,19:00,17,R,ugm-3 (GRAV EQ),,,
01-01-2006,20:00,17,R,ugm-3 (GRAV EQ),,,
01-01-2006,21:00,20,R,ugm-3 (GRAV EQ),,,
01-01-2006,22:00,17,R,ugm-3 (GRAV EQ),,,
01-01-2006,23:00,16,R,ugm-3 (GRAV EQ),,,
01-01-2006,24:00,17,R,ugm-3 (GRAV EQ),,,
02-01-2006,01:00,18,R,ugm-3 (GRAV EQ),,,
02-01-2006,02:00,22,R,ugm-3 (GRAV EQ),,,
02-01-2006,03:00,16,R,ugm-3 (GRAV EQ),,,
02-01-2006,04:00,12,R,ugm-3 (GRAV EQ),,,
02-01-2006,05:00,13,R,ugm-3 (GRAV EQ),,,
02-01-2006,06:00,14,R,ugm-3 (GRAV EQ),,,
02-01-2006,07:00,12,R,ugm-3 (GRAV EQ),,,
02-01-2006,08:00,17,R,ugm-3 (GRAV EQ),,,
02-01-2006,09:00,13,R,ugm-3 (GRAV EQ),,,
02-01-2006,10:00,16,R,ugm-3 (GRAV EQ),,,
02-01-2006,11:00,18,R,ugm-3 (GRAV EQ),,,
02-01-2006,12:00,16,R,ugm-3 (GRAV EQ),,,
02-01-2006,13:00,16,R,ugm-3 (GRAV EQ),,,
02-01-2006,14:00,22,R,ugm-3 (GRAV EQ),,,
02-01-2006,15:00,20,R,ugm-3 (GRAV EQ),,,
02-01-2006,16:00,17,R,ugm-3 (GRAV EQ),,,
02-01-2006,17:00,18,R,ugm-3 (GRAV EQ),,,
02-01-2006,18:00,20,R,ugm-3 (GRAV EQ),,,
02-01-2006,19:00,21,R,ugm-3 (GRAV EQ),,,
02-01-2006,20:00,25,R,ugm-3 (GRAV EQ),,,
02-01-2006,21:00,25,R,ugm-3 (GRAV EQ),,,
02-01-2006,22:00,30,R,ugm-3 (GRAV EQ),,,
02-01-2006,23:00,26,R,ugm-3 (GRAV EQ),,,
02-01-2006,24:00,26,R,ugm-3 (GRAV EQ),,,
03-01-2006,01:00,23,R,ugm-3 (GRAV EQ),,,
03-01-2006,02:00,22,R,ugm-3 (GRAV EQ),,,
03-01-2006,03:00,21,R,ugm-3 (GRAV EQ),,,
03-01-2006,04:00,18,R,ugm-3 (GRAV EQ),,,
03-01-2006,05:00,18,R,ugm-3 (GRAV EQ),,,
03-01-2006,06:00,20,R,ugm-3 (GRAV EQ),,,
03-01-2006,07:00,20,R,ugm-3 (GRAV EQ),,,
03-01-2006,08:00,21,R,ugm-3 (GRAV EQ),,,
03-01-2006,09:00,22,R,ugm-3 (GRAV EQ),,,
03-01-2006,10:00,20,R,ugm-3 (GRAV EQ),,,
03-01-2006,11:00,21,R,ugm-3 (GRAV EQ),,,
03-01-2006,12:00,25,R,ugm-3 (GRAV EQ),,,
03-01-2006,13:00,22,R,ugm-3 (GRAV EQ),,,
03-01-2006,14:00,25,R,ugm-3 (GRAV EQ),,,
03-01-2006,15:00,22,R,ugm-3 (GRAV EQ),,,
03-01-2006,16:00,22,R,ugm-3 (GRAV EQ),,,
03-01-2006,17:00,25,R,ugm-3 (GRAV EQ),,,
03-01-2006,18:00,25,R,ugm-3 (GRAV EQ),,,
03-01-2006,19:00,36,R,ugm-3 (GRAV EQ),,,
03-01-2006,20:00,74,R,ugm-3 (GRAV EQ),,,
03-01-2006,21:00,79,R,ugm-3 (GRAV EQ),,,
03-01-2006,22:00,53,R,ugm-3 (GRAV EQ),,,
03-01-2006,23:00,27,R,ugm-3 (GRAV EQ),,,
03-01-2006,24:00,29,R,ugm-3 (GRAV EQ),,,
04-01-2006,01:00,73,R,ugm-3 (GRAV EQ),,,
04-01-2006,02:00,9,R,ugm-3 (GRAV EQ),,,
04-01-2006,03:00,22,R,ugm-3 (GRAV EQ),,,
04-01-2006,04:00,20,R,ugm-3 (GRAV EQ),,,
04-01-2006,05:00,18,R,ugm-3 (GRAV EQ),,,
04-01-2006,06:00,16,R,ugm-3 (GRAV EQ),,,
04-01-2006,07:00,17,R,ugm-3 (GRAV EQ),,,
04-01-2006,08:00,13,R,ugm-3 (GRAV EQ),,,
04-01-2006,09:00,16,R,ugm-3 (GRAV EQ),,,
04-01-2006,10:00,17,R,ugm-3 (GRAV EQ),,,
04-01-2006,11:00,17,R,ugm-3 (GRAV EQ),,,
04-01-2006,12:00,18,R,ugm-3 (GRAV EQ),,,
04-01-2006,13:00,23,R,ugm-3 (GRAV EQ),,,
04-01-2006,14:00,33,R,ugm-3 (GRAV EQ),,,
04-01-2006,15:00,111,R,ugm-3 (GRAV EQ),,,
04-01-2006,16:00,,,,,,
04-01-2006,17:00,,,,,,
04-01-2006,18:00,39,R,ugm-3 (GRAV EQ),,,
04-01-2006,19:00,62,R,ugm-3 (GRAV EQ),,,
04-01-2006,20:00,42,R,ugm-3 (GRAV EQ),,,
04-01-2006,21:00,29,R,ugm-3 (GRAV EQ),,,
04-01-2006,22:00,33,R,ugm-3 (GRAV EQ),,,
04-01-2006,23:00,39,R,ugm-3 (GRAV EQ),,,
04-01-2006,24:00,35,R,ugm-3 (GRAV EQ),,,
05-01-2006,01:00,31,R,ugm-3 (GRAV EQ),,,
05-01-2006,02:00,34,R,ugm-3 (GRAV EQ),,,
05-01-2006,03:00,39,R,ugm-3 (GRAV EQ),,,
05-01-2006,04:00,34,R,ugm-3 (GRAV EQ),,,
05-01-2006,05:00,42,R,ugm-3 (GRAV EQ),,,
05-01-2006,06:00,31,R,ugm-3 (GRAV EQ),,,
05-01-2006,07:00,30,R,ugm-3 (GRAV EQ),,,
05-01-2006,08:00,34,R,ugm-3 (GRAV EQ),,,
05-01-2006,09:00,27,R,ugm-3 (GRAV EQ),,,
05-01-2006,10:00,34,R,ugm-3 (GRAV EQ),,,
05-01-2006,11:00,23,R,ugm-3 (GRAV EQ),,,
05-01-2006,12:00,68,R,ugm-3 (GRAV EQ),,,
05-01-2006,13:00,36,R,ugm-3 (GRAV EQ),,,
05-01-2006,14:00,18,R,ugm-3 (GRAV EQ),,,
05-01-2006,15:00,22,R,ugm-3 (GRAV EQ),,,
05-01-2006,16:00,46,R,ugm-3 (GRAV EQ),,,
05-01-2006,17:00,46,R,ugm-3 (GRAV EQ),,,
05-01-2006,18:00,21,R,ugm-3 (GRAV EQ),,,
05-01-2006,19:00,29,R,ugm-3 (GRAV EQ),,,
05-01-2006,20:00,46,R,ugm-3 (GRAV EQ),,,
05-01-2006,21:00,34,R,ugm-3 (GRAV EQ),,,
05-01-2006,22:00,30,R,ugm-3 (GRAV EQ),,,
05-01-2006,23:00,21,R,ugm-3 (GRAV EQ),,,
05-01-2006,24:00,34,R,ugm-3 (GRAV EQ),,,
06-01-2006,01:00,27,R,ugm-3 (GRAV EQ),,,
06-01-2006,02:00,26,R,ugm-3 (GRAV EQ),,,
06-01-2006,03:00,22,R,ugm-3 (GRAV EQ),,,
06-01-2006,04:00,22,R,ugm-3 (GRAV EQ),,,
06-01-2006,05:00,26,R,ugm-3 (GRAV EQ),,,
06-01-2006,06:00,23,R,ugm-3 (GRAV EQ),,,
06-01-2006,07:00,30,R,ugm-3 (GRAV EQ),,,
06-01-2006,08:00,48,R,ugm-3 (GRAV EQ),,,
06-01-2006,09:00,60,R,ugm-3 (GRAV EQ),,,
06-01-2006,10:00,52,R,ugm-3 (GRAV EQ),,,
06-01-2006,11:00,47,R,ugm-3 (GRAV EQ),,,
06-01-2006,12:00,62,R,ugm-3 (GRAV EQ),,,
06-01-2006,13:00,51,R,ugm-3 (GRAV EQ),,,
06-01-2006,14:00,55,R,ugm-3 (GRAV EQ),,,
06-01-2006,15:00,44,R,ugm-3 (GRAV EQ),,,
06-01-2006,16:00,57,R,ugm-3 (GRAV EQ),,,
06-01-2006,17:00,74,R,ugm-3 (GRAV EQ),,,
06-01-2006,18:00,75,R,ugm-3 (GRAV EQ),,,
06-01-2006,19:00,51,R,ugm-3 (GRAV EQ),,,
06-01-2006,20:00,27,R,ugm-3 (GRAV EQ),,,
06-01-2006,21:00,39,R,ugm-3 (GRAV EQ),,,
06-01-2006,22:00,34,R,ugm-3 (GRAV EQ),,,
06-01-2006,23:00,33,R,ugm-3 (GRAV EQ),,,
06-01-2006,24:00,27,R,ugm-3 (GRAV EQ),,,
07-01-2006,01:00,23,R,ugm-3 (GRAV EQ),,,
07-01-2006,02:00,21,R,ugm-3 (GRAV EQ),,,
07-01-2006,03:00,23,R,ugm-3 (GRAV EQ),,,
07-01-2006,04:00,22,R,ugm-3 (GRAV EQ),,,
07-01-2006,05:00,29,R,ugm-3 (GRAV EQ),,,
07-01-2006,06:00,16,R,ugm-3 (GRAV EQ),,,
07-01-2006,07:00,16,R,ugm-3 (GRAV EQ),,,
07-01-2006,08:00,21,R,ugm-3 (GRAV EQ),,,
07-01-2006,09:00,35,R,ugm-3 (GRAV EQ),,,
07-01-2006,10:00,31,R,ugm-3 (GRAV EQ),,,
07-01-2006,11:00,29,R,ugm-3 (GRAV EQ),,,
07-01-2006,12:00,34,R,ugm-3 (GRAV EQ),,,
07-01-2006,13:00,57,R,ugm-3 (GRAV EQ),,,
07-01-2006,14:00,49,R,ugm-3 (GRAV EQ),,,
07-01-2006,15:00,60,R,ugm-3 (GRAV EQ),,,
07-01-2006,16:00,47,R,ugm-3 (GRAV EQ),,,
07-01-2006,17:00,52,R,ugm-3 (GRAV EQ),,,
07-01-2006,18:00,36,R,ugm-3 (GRAV EQ),,,
07-01-2006,19:00,39,R,ugm-3 (GRAV EQ),,,
07-01-2006,20:00,46,R,ugm-3 (GRAV EQ),,,
07-01-2006,21:00,35,R,ugm-3 (GRAV EQ),,,
07-01-2006,22:00,30,R,ugm-3 (GRAV EQ),,,
07-01-2006,23:00,33,R,ugm-3 (GRAV EQ),,,
07-01-2006,24:00,34,R,ugm-3 (GRAV EQ),,,
08-01-2006,01:00,39,R,ugm-3 (GRAV EQ),,,
08-01-2006,02:00,36,R,ugm-3 (GRAV EQ),,,
08-01-2006,03:00,23,R,ugm-3 (GRAV EQ),,,
08-01-2006,04:00,25,R,ugm-3 (GRAV EQ),,,
08-01-2006,05:00,27,R,ugm-3 (GRAV EQ),,,
08-01-2006,06:00,27,R,ugm-3 (GRAV EQ),,,
08-01-2006,07:00,40,R,ugm-3 (GRAV EQ),,,
08-01-2006,08:00,44,R,ugm-3 (GRAV EQ),,,
08-01-2006,09:00,40,R,ugm-3 (GRAV EQ),,,
08-01-2006,10:00,35,R,ugm-3 (GRAV EQ),,,
08-01-2006,11:00,38,R,ugm-3 (GRAV EQ),,,
08-01-2006,12:00,51,R,ugm-3 (GRAV EQ),,,
08-01-2006,13:00,36,R,ugm-3 (GRAV EQ),,,
08-01-2006,14:00,33,R,ugm-3 (GRAV EQ),,,
08-01-2006,15:00,25,R,ugm-3 (GRAV EQ),,,
08-01-2006,16:00,26,R,ugm-3 (GRAV EQ),,,
08-01-2006,17:00,31,R,ugm-3 (GRAV EQ),,,
08-01-2006,18:00,30,R,ugm-3 (GRAV EQ),,,
08-01-2006,19:00,34,R,ugm-3 (GRAV EQ),,,
08-01-2006,20:00,34,R,ugm-3 (GRAV EQ),,,
08-01-2006,21:00,23,R,ugm-3 (GRAV EQ),,,
08-01-2006,22:00,26,R,ugm-3 (GRAV EQ),,,
08-01-2006,23:00,33,R,ugm-3 (GRAV EQ),,,
08-01-2006,24:00,38,R,ugm-3 (GRAV EQ),,,
09-01-2006,01:00,31,R,ugm-3 (GRAV EQ),,,
09-01-2006,02:00,33,R,ugm-3 (GRAV EQ),,,
09-01-2006,03:00,34,R,ugm-3 (GRAV EQ),,,
09-01-2006,04:00,35,R,ugm-3 (GRAV EQ),,,
09-01-2006,05:00,31,R,ugm-3 (GRAV EQ),,,
09-01-2006,06:00,49,R,ugm-3 (GRAV EQ),,,
09-01-2006,07:00,57,R,ugm-3 (GRAV EQ),,,
09-01-2006,08:00,48,R,ugm-3 (GRAV EQ),,,
09-01-2006,09:00,96,R,ugm-3 (GRAV EQ),,,
09-01-2006,10:00,86,R,ugm-3 (GRAV EQ),,,
09-01-2006,11:00,57,R,ugm-3 (GRAV EQ),,,
09-01-2006,12:00,43,R,ugm-3 (GRAV EQ),,,
09-01-2006,13:00,35,R,ugm-3 (GRAV EQ),,,
09-01-2006,14:00,36,R,ugm-3 (GRAV EQ),,,
09-01-2006,15:00,43,R,ugm-3 (GRAV EQ),,,
09-01-2006,16:00,43,R,ugm-3 (GRAV EQ),,,
09-01-2006,17:00,38,R,ugm-3 (GRAV EQ),,,
09-01-2006,18:00,38,R,ugm-3 (GRAV EQ),,,
09-01-2006,19:00,29,R,ugm-3 (GRAV EQ),,,
09-01-2006,20:00,21,R,ugm-3 (GRAV EQ),,,
09-01-2006,21:00,25,R,ugm-3 (GRAV EQ),,,
09-01-2006,22:00,20,R,ugm-3 (GRAV EQ),,,
09-01-2006,23:00,17,R,ugm-3 (GRAV EQ),,,
09-01-2006,24:00,17,R,ugm-3 (GRAV EQ),,,
10-01-2006,01:00,14,R,ugm-3 (GRAV EQ),,,
10-01-2006,02:00,14,R,ugm-3 (GRAV EQ),,,
10-01-2006,03:00,16,R,ugm-3 (GRAV EQ),,,
10-01-2006,04:00,12,R,ugm-3 (GRAV EQ),,,
10-01-2006,05:00,10,R,ugm-3 (GRAV EQ),,,
10-01-2006,06:00,10,R,ugm-3 (GRAV EQ),,,
10-01-2006,07:00,12,R,ugm-3 (GRAV EQ),,,
10-01-2006,08:00,18,R,ugm-3 (GRAV EQ),,,
10-01-2006,09:00,18,R,ugm-3 (GRAV EQ),,,
10-01-2006,10:00,17,R,ugm-3 (GRAV EQ),,,
10-01-2006,11:00,,,,,,
10-01-2006,12:00,,,,,,
10-01-2006,13:00,,,,,,
10-01-2006,14:00,42,R,ugm-3 (GRAV EQ),,,
10-01-2006,15:00,33,R,ugm-3 (GRAV EQ),,,
10-01-2006,16:00,29,R,ugm-3 (GRAV EQ),,,
10-01-2006,17:00,27,R,ugm-3 (GRAV EQ),,,
10-01-2006,18:00,22,R,ugm-3 (GRAV EQ),,,
10-01-2006,19:00,20,R,ugm-3 (GRAV EQ),,,
10-01-2006,20:00,18,R,ugm-3 (GRAV EQ),,,
10-01-2006,21:00,16,R,ugm-3 (GRAV EQ),,,
10-01-2006,22:00,14,R,ugm-3 (GRAV EQ),,,
10-01-2006,23:00,16,R,ugm-3 (GRAV EQ),,,
10-01-2006,24:00,16,R,ugm-3 (GRAV EQ),,,
11-01-2006,01:00,13,R,ugm-3 (GRAV EQ),,,
11-01-2006,02:00,12,R,ugm-3 (GRAV EQ),,,
11-01-2006,03:00,12,R,ugm-3 (GRAV EQ),,,
11-01-2006,04:00,12,R,ugm-3 (GRAV EQ),,,
11-01-2006,05:00,12,R,ugm-3 (GRAV EQ),,,
11-01-2006,06:00,13,R,ugm-3 (GRAV EQ),,,
11-01-2006,07:00,10,R,ugm-3 (GRAV EQ),,,
11-01-2006,08:00,12,R,ugm-3 (GRAV EQ),,,
11-01-2006,09:00,20,R,ugm-3 (GRAV EQ),,,
11-01-2006,10:00,21,R,ugm-3 (GRAV EQ),,,
11-01-2006,11:00,26,R,ugm-3 (GRAV EQ),,,
11-01-2006,12:00,30,R,ugm-3 (GRAV EQ),,,
11-01-2006,13:00,34,R,ugm-3 (GRAV EQ),,,
11-01-2006,14:00,29,R,ugm-3 (GRAV EQ),,,
11-01-2006,15:00,27,R,ugm-3 (GRAV EQ),,,
11-01-2006,16:00,29,R,ugm-3 (GRAV EQ),,,
11-01-2006,17:00,29,R,ugm-3 (GRAV EQ),,,
11-01-2006,18:00,27,R,ugm-3 (GRAV EQ),,,
11-01-2006,19:00,31,R,ugm-3 (GRAV EQ),,,
11-01-2006,20:00,29,R,ugm-3 (GRAV EQ),,,
11-01-2006,21:00,26,R,ugm-3 (GRAV EQ),,,
11-01-2006,22:00,29,R,ugm-3 (GRAV EQ),,,
11-01-2006,23:00,26,R,ugm-3 (GRAV EQ),,,
11-01-2006,24:00,27,R,ugm-3 (GRAV EQ),,,
12-01-2006,01:00,30,R,ugm-3 (GRAV EQ),,,
12-01-2006,02:00,26,R,ugm-3 (GRAV EQ),,,
12-01-2006,03:00,29,R,ugm-3 (GRAV EQ),,,
12-01-2006,04:00,26,R,ugm-3 (GRAV EQ),,,
12-01-2006,05:00,29,R,ugm-3 (GRAV EQ),,,
12-01-2006,06:00,26,R,ugm-3 (GRAV EQ),,,
12-01-2006,07:00,23,R,ugm-3 (GRAV EQ),,,
12-01-2006,08:00,22,R,ugm-3 (GRAV EQ),,,
12-01-2006,09:00,22,R,ugm-3 (GRAV EQ),,,
12-01-2006,10:00,23,R,ugm-3 (GRAV EQ),,,
12-01-2006,11:00,23,R,ugm-3 (GRAV EQ),,,
12-01-2006,12:00,22,R,ugm-3 (GRAV EQ),,,
12-01-2006,13:00,23,R,ugm-3 (GRAV EQ),,,
12-01-2006,14:00,25,R,ugm-3 (GRAV EQ),,,
12-01-2006,15:00,25,R,ugm-3 (GRAV EQ),,,
12-01-2006,16:00,21,R,ugm-3 (GRAV EQ),,,
12-01-2006,17:00,25,R,ugm-3 (GRAV EQ),,,
12-01-2006,18:00,23,R,ugm-3 (GRAV EQ),,,
12-01-2006,19:00,26,R,ugm-3 (GRAV EQ),,,
12-01-2006,20:00,25,R,ugm-3 (GRAV EQ),,,
12-01-2006,21:00,23,R,ugm-3 (GRAV EQ),,,
12-01-2006,22:00,25,R,ugm-3 (GRAV EQ),,,
12-01-2006,23:00,23,R,ugm-3 (GRAV EQ),,,
12-01-2006,24:00,22,R,ugm-3 (GRAV EQ),,,
13-01-2006,01:00,20,R,ugm-3 (GRAV EQ),,,
13-01-2006,02:00,18,R,ugm-3 (GRAV EQ),,,
13-01-2006,03:00,16,R,ugm-3 (GRAV EQ),,,
13-01-2006,04:00,18,R,ugm-3 (GRAV EQ),,,
13-01-2006,05:00,20,R,ugm-3 (GRAV EQ),,,
13-01-2006,06:00,18,R,ugm-3 (GRAV EQ),,,
13-01-2006,07:00,17,R,ugm-3 (GRAV EQ),,,
13-01-2006,08:00,20,R,ugm-3 (GRAV EQ),,,
13-01-2006,09:00,18,R,ugm-3 (GRAV EQ),,,
13-01-2006,10:00,17,R,ugm-3 (GRAV EQ),,,
13-01-2006,11:00,18,R,ugm-3 (GRAV EQ),,,
13-01-2006,12:00,17,R,ugm-3 (GRAV EQ),,,
13-01-2006,13:00,18,R,ugm-3 (GRAV EQ),,,
13-01-2006,14:00,21,R,ugm-3 (GRAV EQ),,,
13-01-2006,15:00,22,R,ugm-3 (GRAV EQ),,,
13-01-2006,16:00,22,R,ugm-3 (GRAV EQ),,,
13-01-2006,17:00,23,R,ugm-3 (GRAV EQ),,,
13-01-2006,18:00,26,R,ugm-3 (GRAV EQ),,,
13-01-2006,19:00,25,R,ugm-3 (GRAV EQ),,,
13-01-2006,20:00,25,R,ugm-3 (GRAV EQ),,,
13-01-2006,21:00,27,R,ugm-3 (GRAV EQ),,,
13-01-2006,22:00,26,R,ugm-3 (GRAV EQ),,,
13-01-2006,23:00,25,R,ugm-3 (GRAV EQ),,,
13-01-2006,24:00,22,R,ugm-3 (GRAV EQ),,,
14-01-2006,01:00,22,R,ugm-3 (GRAV EQ),,,
14-01-2006,02:00,22,R,ugm-3 (GRAV EQ),,,
14-01-2006,03:00,22,R,ugm-3 (GRAV EQ),,,
14-01-2006,04:00,23,R,ugm-3 (GRAV EQ),,,
14-01-2006,05:00,23,R,ugm-3 (GRAV EQ),,,
14-01-2006,06:00,23,R,ugm-3 (GRAV EQ),,,
14-01-2006,07:00,25,R,ugm-3 (GRAV EQ),,,
14-01-2006,08:00,26,R,ugm-3 (GRAV EQ),,,
14-01-2006,09:00,26,R,ugm-3 (GRAV EQ),,,
14-01-2006,10:00,30,R,ugm-3 (GRAV EQ),,,
14-01-2006,11:00,34,R,ugm-3 (GRAV EQ),,,
14-01-2006,12:00,31,R,ugm-3 (GRAV EQ),,,
14-01-2006,13:00,30,R,ugm-3 (GRAV EQ),,,
14-01-2006,14:00,31,R,ugm-3 (GRAV EQ),,,
14-01-2006,15:00,27,R,ugm-3 (GRAV EQ),,,
14-01-2006,16:00,23,R,ugm-3 (GRAV EQ),,,
14-01-2006,17:00,23,R,ugm-3 (GRAV EQ),,,
14-01-2006,18:00,18,R,ugm-3 (GRAV EQ),,,
14-01-2006,19:00,21,R,ugm-3 (GRAV EQ),,,
14-01-2006,20:00,21,R,ugm-3 (GRAV EQ),,,
14-01-2006,21:00,23,R,ugm-3 (GRAV EQ),,,
14-01-2006,22:00,18,R,ugm-3 (GRAV EQ),,,
14-01-2006,23:00,17,R,ugm-3 (GRAV EQ),,,
14-01-2006,24:00,17,R,ugm-3 (GRAV EQ),,,
15-01-2006,01:00,14,R,ugm-3 (GRAV EQ),,,
15-01-2006,02:00,13,R,ugm-3 (GRAV EQ),,,
15-01-2006,03:00,8,R,ugm-3 (GRAV EQ),,,
15-01-2006,04:00,5,R,ugm-3 (GRAV EQ),,,
15-01-2006,05:00,10,R,ugm-3 (GRAV EQ),,,
15-01-2006,06:00,14,R,ugm-3 (GRAV EQ),,,
15-01-2006,07:00,16,R,ugm-3 (GRAV EQ),,,
15-01-2006,08:00,22,R,ugm-3 (GRAV EQ),,,
15-01-2006,09:00,27,R,ugm-3 (GRAV EQ),,,
15-01-2006,10:00,29,R,ugm-3 (GRAV EQ),,,
15-01-2006,11:00,29,R,ugm-3 (GRAV EQ),,,
15-01-2006,12:00,27,R,ugm-3 (GRAV EQ),,,
15-01-2006,13:00,25,R,ugm-3 (GRAV EQ),,,
15-01-2006,14:00,26,R,ugm-3 (GRAV EQ),,,
15-01-2006,15:00,29,R,ugm-3 (GRAV EQ),,,
15-01-2006,16:00,31,R,ugm-3 (GRAV EQ),,,
15-01-2006,17:00,26,R,ugm-3 (GRAV EQ),,,
15-01-2006,18:00,25,R,ugm-3 (GRAV EQ),,,
15-01-2006,19:00,25,R,ugm-3 (GRAV EQ),,,
15-01-2006,20:00,25,R,ugm-3 (GRAV EQ),,,
15-01-2006,21:00,25,R,ugm-3 (GRAV EQ),,,
15-01-2006,22:00,26,R,ugm-3 (GRAV EQ),,,
15-01-2006,23:00,26,R,ugm-3 (GRAV EQ),,,
15-01-2006,24:00,25,R,ugm-3 (GRAV EQ),,,
16-01-2006,01:00,26,R,ugm-3 (GRAV EQ),,,
16-01-2006,02:00,30,R,ugm-3 (GRAV EQ),,,
16-01-2006,03:00,29,R,ugm-3 (GRAV EQ),,,
16-01-2006,04:00,26,R,ugm-3 (GRAV EQ),,,
16-01-2006,05:00,26,R,ugm-3 (GRAV EQ),,,
16-01-2006,06:00,26,R,ugm-3 (GRAV EQ),,,
16-01-2006,07:00,26,R,ugm-3 (GRAV EQ),,,
16-01-2006,08:00,27,R,ugm-3 (GRAV EQ),,,
16-01-2006,09:00,27,R,ugm-3 (GRAV EQ),,,
16-01-2006,10:00,29,R,ugm-3 (GRAV EQ),,,
16-01-2006,11:00,,,,,,
16-01-2006,12:00,,,,,,
16-01-2006,13:00,,,,,,
16-01-2006,14:00,,,,,,
16-01-2006,15:00,,,,,,
16-01-2006,16:00,38,R,ugm-3 (GRAV EQ),,,
16-01-2006,17:00,,,,,,
16-01-2006,18:00,,,,,,
16-01-2006,19:00,,,,,,
16-01-2006,20:00,,,,,,
16-01-2006,21:00,,,,,,
16-01-2006,22:00,,,,,,
16-01-2006,23:00,,,,,,
16-01-2006,24:00,,,,,,
17-01-2006,01:00,,,,,,
17-01-2006,02:00,,,,,,
17-01-2006,03:00,,,,,,
17-01-2006,04:00,,,,,,
17-01-2006,05:00,,,,,,
17-01-2006,06:00,,,,,,
17-01-2006,07:00,,,,,,
17-01-2006,08:00,,,,,,
17-01-2006,09:00,,,,,,
17-01-2006,10:00,,,,,,
17-01-2006,11:00,,,,,,
17-01-2006,12:00,20,R,ugm-3 (GRAV EQ),8,R,ugm-3
17-01-2006,13:00,16,R,ugm-3 (GRAV EQ),13,R,ugm-3
17-01-2006,14:00,14,R,ugm-3 (GRAV EQ),0,R,ugm-3
17-01-2006,15:00,20,R,ugm-3 (GRAV EQ),0,R,ugm-3
17-01-2006,16:00,22,R,ugm-3 (GRAV EQ),5,R,ugm-3
17-01-2006,17:00,22,R,ugm-3 (GRAV EQ),16,R,ugm-3
17-01-2006,18:00,25,R,ugm-3 (GRAV EQ),5,R,ugm-3
17-01-2006,19:00,29,R,ugm-3 (GRAV EQ),5,R,ugm-3
17-01-2006,20:00,27,R,ugm-3 (GRAV EQ),5,R,ugm-3
17-01-2006,21:00,27,R,ugm-3 (GRAV EQ),5,R,ugm-3
17-01-2006,22:00,25,R,ugm-3 (GRAV EQ),5,R,ugm-3
17-01-2006,23:00,25,R,ugm-3 (GRAV EQ),3,R,ugm-3
17-01-2006,24:00,30,R,ugm-3 (GRAV EQ),5,R,ugm-3
18-01-2006,01:00,30,R,ugm-3 (GRAV EQ),5,R,ugm-3
18-01-2006,02:00,29,R,ugm-3 (GRAV EQ),3,R,ugm-3
18-01-2006,03:00,25,R,ugm-3 (GRAV EQ),0,R,ugm-3
18-01-2006,04:00,20,R,ugm-3 (GRAV EQ),0,R,ugm-3
18-01-2006,05:00,14,R,ugm-3 (GRAV EQ),0,R,ugm-3
18-01-2006,06:00,16,R,ugm-3 (GRAV EQ),3,R,ugm-3
18-01-2006,07:00,16,R,ugm-3 (GRAV EQ),5,R,ugm-3
18-01-2006,08:00,14,R,ugm-3 (GRAV EQ),5,R,ugm-3
18-01-2006,09:00,22,R,ugm-3 (GRAV EQ),5,R,ugm-3
18-01-2006,10:00,18,R,ugm-3 (GRAV EQ),5,R,ugm-3
18-01-2006,11:00,18,R,ugm-3 (GRAV EQ),5,R,ugm-3
18-01-2006,12:00,17,R,ugm-3 (GRAV EQ),5,R,ugm-3
18-01-2006,13:00,21,R,ugm-3 (GRAV EQ),5,R,ugm-3
18-01-2006,14:00,17,R,ugm-3 (GRAV EQ),5,R,ugm-3
18-01-2006,15:00,17,R,ugm-3 (GRAV EQ),5,R,ugm-3
18-01-2006,16:00,16,R,ugm-3 (GRAV EQ),5,R,ugm-3
18-01-2006,17:00,17,R,ugm-3 (GRAV EQ),8,R,ugm-3
18-01-2006,18:00,22,R,ugm-3 (GRAV EQ),8,R,ugm-3
18-01-2006,19:00,22,R,ugm-3 (GRAV EQ),5,R,ugm-3
18-01-2006,20:00,22,R,ugm-3 (GRAV EQ),3,R,ugm-3
18-01-2006,21:00,23,R,ugm-3 (GRAV EQ),0,R,ugm-3
18-01-2006,22:00,27,R,ugm-3 (GRAV EQ),0,R,ugm-3
18-01-2006,23:00,29,R,ugm-3 (GRAV EQ),3,R,ugm-3
18-01-2006,24:00,23,R,ugm-3 (GRAV EQ),0,R,ugm-3
19-01-2006,01:00,18,R,ugm-3 (GRAV EQ),0,R,ugm-3
19-01-2006,02:00,18,R,ugm-3 (GRAV EQ),0,R,ugm-3
19-01-2006,03:00,17,R,ugm-3 (GRAV EQ),0,R,ugm-3
19-01-2006,04:00,16,R,ugm-3 (GRAV EQ),0,R,ugm-3
19-01-2006,05:00,16,R,ugm-3 (GRAV EQ),0,R,ugm-3
19-01-2006,06:00,14,R,ugm-3 (GRAV EQ),0,R,ugm-3
19-01-2006,07:00,14,R,ugm-3 (GRAV EQ),0,R,ugm-3
19-01-2006,08:00,16,R,ugm-3 (GRAV EQ),0,R,ugm-3
19-01-2006,09:00,23,R,ugm-3 (GRAV EQ),3,R,ugm-3
19-01-2006,10:00,18,R,ugm-3 (GRAV EQ),0,R,ugm-3
19-01-2006,11:00,18,R,ugm-3 (GRAV EQ),0,R,ugm-3
19-01-2006,12:00,14,R,ugm-3 (GRAV EQ),0,R,ugm-3
19-01-2006,13:00,20,R,ugm-3 (GRAV EQ),0,R,ugm-3
19-01-2006,14:00,27,R,ugm-3 (GRAV EQ),3,R,ugm-3
19-01-2006,15:00,22,R,ugm-3 (GRAV EQ),0,R,ugm-3
19-01-2006,16:00,20,R,ugm-3 (GRAV EQ),0,R,ugm-3
19-01-2006,17:00,21,R,ugm-3 (GRAV EQ),0,R,ugm-3
19-01-2006,18:00,26,R,ugm-3 (GRAV EQ),0,R,ugm-3
19-01-2006,19:00,23,R,ugm-3 (GRAV EQ),0,R,ugm-3
19-01-2006,20:00,21,R,ugm-3 (GRAV EQ),0,R,ugm-3
19-01-2006,21:00,20,R,ugm-3 (GRAV EQ),0,R,ugm-3
19-01-2006,22:00,22,R,ugm-3 (GRAV EQ),0,R,ugm-3
19-01-2006,23:00,21,R,ugm-3 (GRAV EQ),0,R,ugm-3
19-01-2006,24:00,9,R,ugm-3 (GRAV EQ),0,R,ugm-3
20-01-2006,01:00,8,R,ugm-3 (GRAV EQ),3,R,ugm-3
20-01-2006,02:00,13,R,ugm-3 (GRAV EQ),0,R,ugm-3
20-01-2006,03:00,7,R,ugm-3 (GRAV EQ),0,R,ugm-3
20-01-2006,04:00,5,R,ugm-3 (GRAV EQ),0,R,ugm-3
20-01-2006,05:00,4,R,ugm-3 (GRAV EQ),0,R,ugm-3
20-01-2006,06:00,9,R,ugm-3 (GRAV EQ),0,R,ugm-3
20-01-2006,07:00,7,R,ugm-3 (GRAV EQ),0,R,ugm-3
20-01-2006,08:00,7,R,ugm-3 (GRAV EQ),0,R,ugm-3
20-01-2006,09:00,10,R,ugm-3 (GRAV EQ),0,R,ugm-3
20-01-2006,10:00,9,R,ugm-3 (GRAV EQ),0,R,ugm-3
20-01-2006,11:00,17,R,ugm-3 (GRAV EQ),0,R,ugm-3
20-01-2006,12:00,30,R,ugm-3 (GRAV EQ),0,R,ugm-3
20-01-2006,13:00,30,R,ugm-3 (GRAV EQ),0,R,ugm-3
20-01-2006,14:00,33,R,ugm-3 (GRAV EQ),0,R,ugm-3
20-01-2006,15:00,33,R,ugm-3 (GRAV EQ),0,R,ugm-3
20-01-2006,16:00,31,R,ugm-3 (GRAV EQ),0,R,ugm-3
20-01-2006,17:00,27,R,ugm-3 (GRAV EQ),0,R,ugm-3
20-01-2006,18:00,26,R,ugm-3 (GRAV EQ),0,R,ugm-3
20-01-2006,19:00,23,R,ugm-3 (GRAV EQ),0,R,ugm-3
20-01-2006,20:00,22,R,ugm-3 (GRAV EQ),5,R,ugm-3
20-01-2006,21:00,21,R,ugm-3 (GRAV EQ),5,R,ugm-3
20-01-2006,22:00,30,R,ugm-3 (GRAV EQ),19,R,ugm-3
20-01-2006,23:00,33,R,ugm-3 (GRAV EQ),19,R,ugm-3
20-01-2006,24:00,29,R,ugm-3 (GRAV EQ),13,R,ugm-3
21-01-2006,01:00,26,R,ugm-3 (GRAV EQ),3,R,ugm-3
21-01-2006,02:00,26,R,ugm-3 (GRAV EQ),3,R,ugm-3
21-01-2006,03:00,27,R,ugm-3 (GRAV EQ),3,R,ugm-3
21-01-2006,04:00,25,R,ugm-3 (GRAV EQ),8,R,ugm-3
21-01-2006,05:00,21,R,ugm-3 (GRAV EQ),5,R,ugm-3
21-01-2006,06:00,18,R,ugm-3 (GRAV EQ),3,R,ugm-3
21-01-2006,07:00,17,R,ugm-3 (GRAV EQ),3,R,ugm-3
21-01-2006,08:00,18,R,ugm-3 (GRAV EQ),3,R,ugm-3
21-01-2006,09:00,22,R,ugm-3 (GRAV EQ),8,R,ugm-3
21-01-2006,10:00,23,R,ugm-3 (GRAV EQ),8,R,ugm-3
21-01-2006,11:00,21,R,ugm-3 (GRAV EQ),8,R,ugm-3
21-01-2006,12:00,20,R,ugm-3 (GRAV EQ),5,R,ugm-3
21-01-2006,13:00,18,R,ugm-3 (GRAV EQ),3,R,ugm-3
21-01-2006,14:00,20,R,ugm-3 (GRAV EQ),3,R,ugm-3
21-01-2006,15:00,21,R,ugm-3 (GRAV EQ),3,R,ugm-3
21-01-2006,16:00,23,R,ugm-3 (GRAV EQ),3,R,ugm-3
21-01-2006,17:00,30,R,ugm-3 (GRAV EQ),3,R,ugm-3
21-01-2006,18:00,51,R,ugm-3 (GRAV EQ),8,R,ugm-3
21-01-2006,19:00,43,R,ugm-3 (GRAV EQ),8,R,ugm-3
21-01-2006,20:00,43,R,ugm-3 (GRAV EQ),13,R,ugm-3
21-01-2006,21:00,30,R,ugm-3 (GRAV EQ),11,R,ugm-3
21-01-2006,22:00,59,R,ugm-3 (GRAV EQ),13,R,ugm-3
21-01-2006,23:00,36,R,ugm-3 (GRAV EQ),13,R,ugm-3
21-01-2006,24:00,31,R,ugm-3 (GRAV EQ),13,R,ugm-3
22-01-2006,01:00,35,R,ugm-3 (GRAV EQ),8,R,ugm-3
22-01-2006,02:00,36,R,ugm-3 (GRAV EQ),8,R,ugm-3
22-01-2006,03:00,36,R,ugm-3 (GRAV EQ),8,R,ugm-3
22-01-2006,04:00,29,R,ugm-3 (GRAV EQ),8,R,ugm-3
22-01-2006,05:00,20,R,ugm-3 (GRAV EQ),3,R,ugm-3
22-01-2006,06:00,16,R,ugm-3 (GRAV EQ),3,R,ugm-3
22-01-2006,07:00,13,R,ugm-3 (GRAV EQ),3,R,ugm-3
22-01-2006,08:00,13,R,ugm-3 (GRAV EQ),3,R,ugm-3
22-01-2006,09:00,12,R,ugm-3 (GRAV EQ),3,R,ugm-3
22-01-2006,10:00,13,R,ugm-3 (GRAV EQ),3,R,ugm-3
22-01-2006,11:00,17,R,ugm-3 (GRAV EQ),3,R,ugm-3
22-01-2006,12:00,16,R,ugm-3 (GRAV EQ),3,R,ugm-3
22-01-2006,13:00,17,R,ugm-3 (GRAV EQ),3,R,ugm-3
22-01-2006,14:00,22,R,ugm-3 (GRAV EQ),3,R,ugm-3
22-01-2006,15:00,20,R,ugm-3 (GRAV EQ),3,R,ugm-3
22-01-2006,16:00,18,R,ugm-3 (GRAV EQ),3,R,ugm-3
22-01-2006,17:00,18,R,ugm-3 (GRAV EQ),3,R,ugm-3
22-01-2006,18:00,18,R,ugm-3 (GRAV EQ),3,R,ugm-3
22-01-2006,19:00,21,R,ugm-3 (GRAV EQ),3,R,ugm-3
22-01-2006,20:00,23,R,ugm-3 (GRAV EQ),5,R,ugm-3
22-01-2006,21:00,25,R,ugm-3 (GRAV EQ),3,R,ugm-3
22-01-2006,22:00,25,R,ugm-3 (GRAV EQ),3,R,ugm-3
22-01-2006,23:00,26,R,ugm-3 (GRAV EQ),3,R,ugm-3
22-01-2006,24:00,26,R,ugm-3 (GRAV EQ),3,R,ugm-3
23-01-2006,01:00,27,R,ugm-3 (GRAV EQ),3,R,ugm-3
23-01-2006,02:00,33,R,ugm-3 (GRAV EQ),3,R,ugm-3
23-01-2006,03:00,31,R,ugm-3 (GRAV EQ),3,R,ugm-3
23-01-2006,04:00,30,R,ugm-3 (GRAV EQ),3,R,ugm-3
23-01-2006,05:00,27,R,ugm-3 (GRAV EQ),0,R,ugm-3
23-01-2006,06:00,27,R,ugm-3 (GRAV EQ),3,R,ugm-3
23-01-2006,07:00,29,R,ugm-3 (GRAV EQ),3,R,ugm-3
23-01-2006,08:00,30,R,ugm-3 (GRAV EQ),5,R,ugm-3
23-01-2006,09:00,30,R,ugm-3 (GRAV EQ),8,R,ugm-3
23-01-2006,10:00,29,R,ugm-3 (GRAV EQ),5,R,ugm-3
23-01-2006,11:00,27,R,ugm-3 (GRAV EQ),5,R,ugm-3
23-01-2006,12:00,30,R,ugm-3 (GRAV EQ),5,R,ugm-3
23-01-2006,13:00,31,R,ugm-3 (GRAV EQ),5,R,ugm-3
23-01-2006,14:00,34,R,ugm-3 (GRAV EQ),8,R,ugm-3
23-01-2006,15:00,35,R,ugm-3 (GRAV EQ),5,R,ugm-3
23-01-2006,16:00,33,R,ugm-3 (GRAV EQ),8,R,ugm-3
23-01-2006,17:00,33,R,ugm-3 (GRAV EQ),5,R,ugm-3
23-01-2006,18:00,34,R,ugm-3 (GRAV EQ),5,R,ugm-3
23-01-2006,19:00,31,R,ugm-3 (GRAV EQ),5,R,ugm-3
23-01-2006,20:00,33,R,ugm-3 (GRAV EQ),5,R,ugm-3
23-01-2006,21:00,42,R,ugm-3 (GRAV EQ),8,R,ugm-3
23-01-2006,22:00,40,R,ugm-3 (GRAV EQ),5,R,ugm-3
23-01-2006,23:00,46,R,ugm-3 (GRAV EQ),8,R,ugm-3
23-01-2006,24:00,48,R,ugm-3 (GRAV EQ),13,R,ugm-3
24-01-2006,01:00,48,R,ugm-3 (GRAV EQ),13,R,ugm-3
24-01-2006,02:00,46,R,ugm-3 (GRAV EQ),3,R,ugm-3
24-01-2006,03:00,44,R,ugm-3 (GRAV EQ),3,R,ugm-3
24-01-2006,04:00,44,R,ugm-3 (GRAV EQ),5,R,ugm-3
24-01-2006,05:00,42,R,ugm-3 (GRAV EQ),3,R,ugm-3
24-01-2006,06:00,42,R,ugm-3 (GRAV EQ),3,R,ugm-3
24-01-2006,07:00,43,R,ugm-3 (GRAV EQ),3,R,ugm-3
24-01-2006,08:00,46,R,ugm-3 (GRAV EQ),8,R,ugm-3
24-01-2006,09:00,52,R,ugm-3 (GRAV EQ),11,R,ugm-3
24-01-2006,10:00,49,R,ugm-3 (GRAV EQ),11,R,ugm-3
24-01-2006,11:00,52,R,ugm-3 (GRAV EQ),13,R,ugm-3